SCP
0 -0 -0 -0 -0 0 -0 -0 -0 -0 -0 -1 -0 -0 -0 -0 -0 -0 -0 -0 0 0 0 0 1 0 0 0 0 0 0 0 0
0 0 0 0 -0 -0 -0 -0 -0 -0 -0 -0 -1 -1 -0 -0 -0 -0 -0 0 0 -0 0 0 1 1 0 0 0 0 0 0 0
-0 0 0 -0 -0 -0 -0 -0 -0 -0 -0 -0 -0 -0 -0 -0 -1 -0 -0 -0 -0 -0 0 0 1 1 1 0 0 0 0 0 0
0 0 -0 -0 -0 0 0 0 -0 -0 -0 -0 -1 -1 -1 -1 -1 -0 -0 -0 -0 -0 0 0 1 1 1 0 0 0 0 0 0
0 0 0 0 -0 -0 0 -0 -0 -0 -0 -0 -0 -0 -1 -1 -1 -0 -1 -0 -0 -0 -0 0 1 1 0 0 0 -0 0 0 0
0 0 0 0 0 0 0 -0 -0 -0 -0 0 -0 -0 -1 -1 -1 -0 -0 -0 -0 -0 0 0 0 1 1 0 0 0 0 0 0
0 0 0 0 -0 0 0 -0 -0 -0 0 0 0 -0 -0 -1 -1 -0 0 0 0 0 0 1 1 1 1 1 1 0 0 0 0
0 1 1 1 0 0 0 0 -0 -0 -0 0 0 0 -0 -1 0 1 1 2 2 2 1 1 1 1 1 0 0 0 0 0 0
1 1 1 1 0 0 0 0 0 -0 -0 -0 0 0 -0 1 -1 -0 1 2 1 1 1 1 1 1 0 0 0 0 0 0 0
1 1 0 0 0 0 0 0 0 0 0 0 1 2 2 1 0 0 1 1 2 2 1 1 1 1 0 1 0 0 0 -0 -0
0 0 0 0 0 0 0 0 0 0 0 0 1 2 3 1 1 1 1 1 1 2 2 1 1 1 0 0 0 0 0 -0 0
0 0 0 0 0 0 0 1 1 1 1 1 2 2 1 0 2 2 0 0 1 1 2 1 1 1 1 1 0 0 0 0 0
0 0 0 0 0 0 0 0 1 1 1 1 1 2 4 1 2 2 2 2 2 2 2 1 1 0 0 0 0 0 0 0 0
0 0 0 0 0 0 1 1 1 1 1 1 1 1 2 4 4 4 4 4 4 3 3 3 2 1 1 0 0 0 0 0 0
0 0 0 0 0 0 0 1 1 1 1 1 1 2 2 2 3 6 6 7 6 4 4 1 1 1 1 1 0 0 0 0 0
0 0 0 0 0 0 0 1 1 0 1 1 1 1 2 3 5 5 4 4 4 3 3 0 1 0 1 0 0 0 0 0 0
0 0 0 0 0 0 0 1 1 1 1 1 1 1 3 4 5 3 3 3 2 1 0 1 1 1 1 0 0 0 0 0 0
0 0 0 0 0 0 0 0 1 1 1 1 1 1 3 2 2 1 1 1 1 1 0 0 0 0 0 0 0 0 0 0 0
0 0 0 0 0 0 0 0 1 1 1 1 1 1 2 1 1 0 0 0 0 0 0 0 0 0 0 0 0 0 0 0 0
0 0 0 0 0 0 1 1 1 2 1 1 1 1 1 1 1 1 1 0 0 0 0 0 0 0 0 0 0 0 0 0 0
Wind_Speed_500mb
13 26 40 51 53 50 47 47 47 47 47 46 44 43 42 40 37 33 31 32 26 19 18 16 25 15 14 12 10 7 3 4 2
22 23 29 40 50 50 49 49 49 51 47 45 46 46 43 42 41 39 36 39 33 22 22 18 28 22 20 17 13 11 4 7 1
24 23 23 30 38 45 47 49 49 50 49 46 44 45 47 47 46 45 50 40 37 29 25 25 29 23 22 20 16 13 13 10 8
21 28 22 22 23 29 39 46 52 52 49 48 50 50 50 50 48 44 44 38 37 33 32 30 27 25 27 27 22 17 12 16 16
14 3 10 11 16 21 28 40 49 56 53 52 48 50 56 48 48 45 40 40 35 32 34 30 30 29 30 31 25 21 18 10 13
14 9 11 10 11 15 23 33 44 52 57 56 52 50 48 47 46 42 43 39 36 33 34 32 31 34 32 32 27 29 25 18 18
20 16 10 8 4 9 18 25 40 52 52 51 56 51 52 56 57 58 50 46 47 40 39 33 32 29 31 36 36 29 26 22 21
20 18 18 15 12 4 12 23 27 34 45 55 59 66 62 64 59 53 50 50 51 44 41 35 32 28 33 31 29 31 28 24 17
23 19 16 14 14 13 11 18 27 33 42 52 62 61 65 67 62 55 60 59 49 45 41 40 36 33 30 31 23 27 32 22 16
16 13 11 11 12 14 16 9 21 29 37 32 25 20 18 23 29 35 47 50 50 51 48 48 38 35 33 34 33 28 33 23 19
13 10 9 11 14 15 14 11 9 19 23 23 31 31 13 27 28 38 43 47 51 54 55 48 42 39 38 30 26 37 34 24 26
12 8 8 11 14 17 17 16 16 15 15 18 29 50 49 75 91 56 52 53 54 56 55 53 43 43 43 33 30 40 37 31 26
10 6 8 14 16 17 14 18 18 17 14 12 20 30 49 75 62 60 62 60 58 60 61 54 49 48 43 39 32 44 40 35 27
8 5 11 17 17 17 13 15 17 20 19 18 17 23 32 43 55 55 51 55 66 70 70 67 64 56 50 48 36 46 41 40 34
8 15 22 22 19 16 19 14 17 19 21 22 21 26 28 39 46 57 62 67 70 74 69 62 60 53 53 50 43 47 47 46 44
13 19 22 24 22 20 22 16 17 21 22 24 24 28 34 44 49 59 67 73 79 81 77 63 54 54 51 44 47 51 55 50 53
17 21 21 24 26 27 28 25 24 27 25 23 31 29 42 45 52 59 63 71 76 94 89 90 79 72 66 59 59 61 62 61 62
20 19 22 26 29 30 33 34 31 29 28 31 29 27 41 44 47 50 59 73 80 80 71 85 83 74 67 68 70 72 66 74 72
23 23 26 30 34 38 42 39 34 31 35 29 24 27 33 38 43 44 60 79 85 87 89 87 72 67 70 71 68 66 66 68 66
28 34 36 40 45 48 46 38 31 31 29 28 20 22 25 29 35 49 61 76 87 90 93 84 70 67 58 56 63 57 60 55 59
Wind_Direction_500mb
148 175 185 192 191 198 195 197 200 204 206 210 213 214 216 222 224 216 219 229 221 225 220 222 221 218 206 200 206 178 189 20 43
129 151 169 188 192 198 200 200 202 206 209 209 212 214 217 220 223 215 217 218 225 219 212 203 234 225 211 206 191 193 171 246 290
128 141 159 176 193 201 205 204 206 207 205 207 207 204 215 217 219 222 212 219 214 204 217 205 230 227 223 220 194 199 144 255 264
138 151 169 169 185 202 207 210 209 209 206 206 203 203 208 213 219 220 218 213 218 207 214 223 229 232 225 215 207 196 181 212 265
79 118 151 181 191 201 211 210 213 212 209 210 213 210 208 212 221 218 215 213 212 212 218 217 220 231 222 217 206 203 210 207 237
99 122 139 167 179 193 204 209 211 213 210 212 212 211 208 209 210 212 213 215 205 209 215 209 217 221 218 206 202 209 219 229 231
94 87 76 71 182 194 211 215 215 211 210 210 207 211 209 210 213 215 214 209 211 212 216 208 219 212 208 205 210 219 229 233 223
97 84 69 55 35 339 240 223 219 217 215 209 212 208 208 212 219 216 215 203 216 208 216 202 207 209 206 216 206 218 222 212 198
101 87 68 46 30 13 339 238 227 226 222 224 216 219 214 220 226 229 221 217 210 207 210 203 204 206 208 199 186 223 196 188 189
90 71 48 14 353 349 4 337 234 234 232 224 219 218 238 251 239 232 226 218 207 203 202 213 202 197 201 199 208 204 198 212 206
90 59 26 357 339 334 331 323 279 252 237 224 202 174 264 279 239 252 228 216 209 200 196 199 196 195 196 197 212 190 197 203 201
98 67 25 349 325 317 317 322 302 275 256 237 225 219 210 215 244 238 234 214 206 205 204 198 188 192 187 184 201 191 203 203 195
99 52 14 359 348 324 314 310 300 299 291 245 245 232 224 225 230 226 226 221 208 204 205 192 189 193 189 188 187 196 200 198 187
55 16 349 343 341 343 320 308 304 296 297 290 271 239 229 231 224 221 218 214 212 209 199 187 186 184 189 190 189 191 202 201 182
334 333 334 335 330 325 321 304 311 305 304 302 285 269 250 237 230 227 228 229 211 201 198 188 188 184 183 187 195 188 198 203 192
307 320 320 319 316 311 312 315 296 296 293 286 277 267 256 249 244 238 239 230 213 205 196 192 191 203 196 203 212 200 197 204 196
306 309 307 311 311 308 309 308 293 290 292 283 283 264 254 247 245 245 240 236 223 201 197 201 204 207 208 223 223 208 198 199 199
297 303 306 307 306 304 306 302 292 291 290 294 287 258 259 255 258 252 240 237 229 229 226 211 210 213 218 215 215 216 215 205 202
301 297 299 305 304 302 301 298 281 279 290 296 282 267 267 260 258 253 239 223 221 219 218 209 213 229 234 232 231 223 223 205 207
287 295 298 304 306 302 293 286 276 271 284 290 273 267 272 257 254 249 232 218 218 218 217 211 221 227 230 220 205 209 210 208 197
Wind_Speed_850mb
13 26 40 51 53 50 47 47 47 47 47 46 44 43 42 40 37 33 31 32 26 19 18 16 25 15 14 12 10 7 3 4 2
22 23 29 40 50 50 49 49 49 51 47 45 46 46 43 42 41 39 36 39 33 22 22 18 28 22 20 17 13 11 4 7 1
24 23 23 30 38 45 47 49 49 50 49 46 44 45 47 47 46 45 50 40 37 29 25 25 29 23 22 20 16 13 13 10 8
21 28 22 22 23 29 39 46 52 52 49 48 50 50 50 50 48 44 44 38 37 33 32 30 27 25 27 27 22 17 12 16 16
14 3 10 11 16 21 28 40 49 56 53 52 48 50 56 48 48 45 40 40 35 32 34 30 30 29 30 31 25 21 18 10 13
14 9 11 10 11 15 23 33 44 52 57 56 52 50 48 47 46 42 43 39 36 33 34 32 31 34 32 32 27 29 25 18 18
20 16 10 8 4 9 18 25 40 52 52 51 56 51 52 56 57 58 50 46 47 40 39 33 32 29 31 36 36 29 26 22 21
20 18 18 15 12 4 12 23 27 34 45 55 59 66 62 64 59 53 50 50 51 44 41 35 32 28 33 31 29 31 28 24 17
23 19 16 14 14 13 11 18 27 33 42 52 62 61 65 67 62 55 60 59 49 45 41 40 36 33 30 31 23 27 32 22 16
16 13 11 11 12 14 16 9 21 29 37 32 25 20 18 23 29 35 47 50 50 51 48 48 38 35 33 34 33 28 33 23 19
13 10 9 11 14 15 14 11 9 19 23 23 31 31 13 27 28 38 43 47 51 54 55 48 42 39 38 30 26 37 34 24 26
12 8 8 11 14 17 17 16 16 15 15 18 29 50 49 75 91 56 52 53 54 56 55 53 43 43 43 33 30 40 37 31 26
10 6 8 14 16 17 14 18 18 17 14 12 20 30 49 75 62 60 62 60 58 60 61 54 49 48 43 39 32 44 40 35 27
8 5 11 17 17 17 13 15 17 20 19 18 17 23 32 43 55 55 51 55 66 70 70 67 64 56 50 48 36 46 41 40 34
8 15 22 22 19 16 19 14 17 19 21 22 21 26 28 39 46 57 62 67 70 74 69 62 60 53 53 50 43 47 47 46 44
13 19 22 24 22 20 22 16 17 21 22 24 24 28 34 44 49 59 67 73 79 81 77 63 54 54 51 44 47 51 55 50 53
17 21 21 24 26 27 28 25 24 27 25 23 31 29 42 45 52 59 63 71 76 94 89 90 79 72 66 59 59 61 62 61 62
20 19 22 26 29 30 33 34 31 29 28 31 29 27 41 44 47 50 59 73 80 80 71 85 83 74 67 68 70 72 66 74 72
23 23 26 30 34 38 42 39 34 31 35 29 24 27 33 38 43 44 60 79 85 87 89 87 72 67 70 71 68 66 66 68 66
28 34 36 40 45 48 46 38 31 31 29 28 20 22 25 29 35 49 61 76 87 90 93 84 70 67 58 56 63 57 60 55 59
Wind_Direction_850mb
148 175 185 192 191 198 195 197 200 204 206 210 213 214 216 222 224 216 219 229 221 225 220 222 221 218 206 200 206 178 189 20 43
129 151 169 188 192 198 200 200 202 206 209 209 212 214 217 220 223 215 217 218 225 219 212 203 234 225 211 206 191 193 171 246 290
128 141 159 176 193 201 205 204 206 207 205 207 207 204 215 217 219 222 212 219 214 204 217 205 230 227 223 220 194 199 144 255 264
138 151 169 169 185 202 207 210 209 209 206 206 203 203 208 213 219 220 218 213 218 207 214 223 229 232 225 215 207 196 181 212 265
79 118 151 181 191 201 211 210 213 212 209 210 213 210 208 212 221 218 215 213 212 212 218 217 220 231 222 217 206 203 210 207 237
99 122 139 167 179 193 204 209 211 213 210 212 212 211 208 209 210 212 213 215 205 209 215 209 217 221 218 206 202 209 219 229 231
94 87 76 71 182 194 211 215 215 211 210 210 207 211 209 210 213 215 214 209 211 212 216 208 219 212 208 205 210 219 229 233 223
97 84 69 55 35 339 240 223 219 217 215 209 212 208 208 212 219 216 215 203 216 208 216 202 207 209 206 216 206 218 222 212 198
101 87 68 46 30 13 339 238 227 226 222 224 216 219 214 220 226 229 221 217 210 207 210 203 204 206 208 199 186 223 196 188 189
90 71 48 14 353 349 4 337 234 234 232 224 219 218 238 251 239 232 226 218 207 203 202 213 202 197 201 199 208 204 198 212 206
90 59 26 357 339 334 331 323 279 252 237 224 202 174 264 279 239 252 228 216 209 200 196 199 196 195 196 197 212 190 197 203 201
98 67 25 349 325 317 317 322 302 275 256 237 225 219 210 215 244 238 234 214 206 205 204 198 188 192 187 184 201 191 203 203 195
99 52 14 359 348 324 314 310 300 299 291 245 245 232 224 225 230 226 226 221 208 204 205 192 189 193 189 188 187 196 200 198 187
55 16 349 343 341 343 320 308 304 296 297 290 271 239 229 231 224 221 218 214 212 209 199 187 186 184 189 190 189 191 202 201 182
334 333 334 335 330 325 321 304 311 305 304 302 285 269 250 237 230 227 228 229 211 201 198 188 188 184 183 187 195 188 198 203 192
307 320 320 319 316 311 312 315 296 296 293 286 277 267 256 249 244 238 239 230 213 205 196 192 191 203 196 203 212 200 197 204 196
306 309 307 311 311 308 309 308 293 290 292 283 283 264 254 247 245 245 240 236 223 201 197 201 204 207 208 223 223 208 198 199 199
297 303 306 307 306 304 306 302 292 291 290 294 287 258 259 255 258 252 240 237 229 229 226 211 210 213 218 215 215 216 215 205 202
301 297 299 305 304 302 301 298 281 279 290 296 282 267 267 260 258 253 239 223 221 219 218 209 213 229 234 232 231 223 223 205 207
287 295 298 304 306 302 293 286 276 271 284 290 273 267 272 257 254 249 232 218 218 218 217 211 221 227 230 220 205 209 210 208 197